Regional Weather Roundup
Issued by NWS Cleveland, OH

Home | Current Version | Previous Version | Text Only | Print | Product List | Glossary Off
Versions: 1 2 3 4 5 6 7 8 9 10 11 12 13 14 15 16 17 18 19 20 21 22 23 24 25 26 27 28 29 30 31 32 33 34 35 36 37 38 39 40 41 42 43 44 45 46 47 48 49 50

000
ASUS41 KCLE 010702
RWRCLE
OHIO REGIONAL WEATHER ROUNDUP
NATIONAL WEATHER SERVICE CLEVELAND, OH
300 AM EDT FRI AUG 01 2014

NOTE: "FAIR" INDICATES FEW OR NO CLOUDS BELOW 12,000 FEET WITH NO
SIGNIFICANT WEATHER AND/OR OBSTRUCTIONS TO VISIBILITY.

OHZ001>008-015>018-024>027-034-035-043-044-010800-
   NORTHWEST OHIO

CITY           SKY/WX    TMP DP  RH WIND       PRES   REMARKS
DEFIANCE       MOCLDY    64  61  90 CALM      30.07F
FINDLAY        CLEAR     63  59  87 S5        30.07F
TOLEDO EXPRESS CLEAR     61  58  90 CALM      30.06F
TOLEDO EXEC    CLEAR     63  58  83 S5        30.07S
LIMA           MOCLDY    63  58  83 CALM      30.09F
$$

OHZ009>014-019>023-028>033-038-089-010800-
   NORTHEAST OHIO

CITY           SKY/WX    TMP DP  RH WIND       PRES   REMARKS
CLE-HOPKINS    PTCLDY    66  57  72 S5        30.10F
CLE-LAKEFRONT  CLEAR     69  58  67 S8        30.06F
CUY CO. ARPT   NOT AVBL
LORAIN-ELYRIA  PTCLDY    66  58  75 SW5       30.09F
ASHTABULA      CLEAR     60  56  86 S3        30.10S
AKRON-CANTON   CLEAR     64  57  78 S3        30.11F
WOOSTER        CLEAR     57  54  89 CALM      30.11F
MANSFIELD      CLEAR     62  58  86 CALM      30.11F
YOUNGSTOWN     PTCLDY    63  58  83 S6        30.11F
$$

OHZ042-051>053-060>062-070>072-077>081-010800-
  SOUTHWEST OHIO

CITY           SKY/WX    TMP DP  RH WIND       PRES   REMARKS
CINC-COVINGTON CLEAR     64  59  83 CALM      30.09F
CINC-LUNKEN    CLEAR     61  60  97 CALM      30.09F FOG
HAMILTON       PTCLDY    61  60  97 CALM      30.10F FOG
DAYTON         CLEAR     64  60  87 CALM      30.11F
WRIGHT-PAT AFB PTCLDY    63  60  91 N3        30.10F
DAYTON GENERAL PTCLDY    62  59  90 CALM      30.09F
WILMINGTON     CLOUDY    66  64  93 CALM      30.10F
$$

OHZ036-037-039>041-045>050-054>059-063>069-073>076-082>088-010800-
  CENTRAL AND SOUTHEAST OHIO

CITY           SKY/WX    TMP DP  RH WIND       PRES   REMARKS
COLUMBUS       CLEAR     65  59  81 E3        30.10S
OSU AIRPORT    CLEAR     63  60  90 CALM      30.10F
BOLTON FIELD   CLEAR     59  59  99 CALM      30.10F
RICKENBACK AFB CLEAR     64  58  81 CALM      30.09F
NEWARK         CLEAR     59  57  93 CALM      30.10S FOG
MARION         CLEAR     61  57  87 S3        30.10F
LANCASTER      PTCLDY    60  58  92 CALM      30.11S FOG
ZANESVILLE     CLEAR     62  59  90 CALM      30.11F
NEW PHILLY     CLEAR     59  58  96 CALM      30.12F FOG
$$



USA.gov is the U.S. government's official web portal to all federal, state and local government web resources and services.